weather.gov     
National Weather Service

Regional Weather Roundup
NWS Homepage
This page is being discontinued on March 12, 2014.
The same data is available at this site. Please update your bookmarks.
Thank you, and we apologize for the inconvenience.
Please send an email to SR-SRH.Webmaster@noaa.gov with any concerns.


Current Version
Previous Version:    01  02  03  04  05  06  07  08  09  10  11  12  13  14  15  16  17  18  19  20  21  22  23  24  25  26  
[Printable]
643
ASUS44 KBMX 310810
RWRAL

ALABAMA REGIONAL WEATHER ROUNDUP
NATIONAL WEATHER SERVICE BIRMINGHAM AL
300 AM CDT FRI OCT 31 2014

NOTE: "FAIR" INDICATES FEW OR NO CLOUDS BELOW 12,000 FEET
WITH NO SIGNIFICANT WEATHER AND/OR OBSTRUCTIONS TO VISIBILITY.

THE REMARK "TC" DENOTES TEMPERATURE IN DEGREES CELSIUS.

ALZ001>011-014-016>018-020-310900-
NORTH ALABAMA

CITY           SKY/WX    TMP DP  RH WIND       PRES   REMARKS
MUSCLE SHOALS  CLOUDY    49  44  83 CALM      30.01F
HUNTSVILLE     MOCLDY    46  42  86 CALM      29.99F
DECATUR        PTCLDY    44  41  89 CALM      30.00F
HALEYVILLE     MOCLDY    42  41  97 CALM      30.02F
GADSDEN        MOCLDY    41  37  87 CALM      30.00F
$$

ALZ012-013-022-023-030>036-040>044-310900-
WEST CENTRAL ALABAMA

CITY           SKY/WX    TMP DP  RH WIND       PRES   REMARKS
TUSCALOOSA     CLEAR     43  41  93 CALM      30.01F
$$

ALZ015-024>027-033>036-040>044-310900-
CENTRAL ALABAMA

CITY           SKY/WX    TMP DP  RH WIND       PRES   REMARKS
BIRMINGHAM     MOCLDY    47  43  86 CALM      30.01F
MONTGOMERY     CLEAR     46  42  86 W3        29.99F
SHELBY CO ARPT PTCLDY    48  45  89 CALM      29.99F
MAXWELL AFB    PTCLDY    43 N/A N/A CALM      29.98F
GREENVILLE     FAIR      45  40  82 CALM      29.98F
$$

ALZ019-021-028-029-037-038-045>048-310900-
EAST CENTRAL ALABAMA

CITY           SKY/WX    TMP DP  RH WIND       PRES   REMARKS
ANNISTON       PTCLDY    40  38  93 W3        30.00S
ALEXANDER CITY PTCLDY    42  37  85 CALM      29.98F
AUBURN         PTCLDY    45  37  76 N5        29.98F
$$

ALZ051>064-310900-
SOUTHWEST ALABAMA

CITY           SKY/WX    TMP DP  RH WIND       PRES   REMARKS
MOBILE         CLEAR     45  41  86 NW3       30.02F
BROOKLEY FIELD CLEAR     51  41  68 NW7       30.03S
EVERGREEN      CLEAR     44  41  89 CALM      29.99F
$$

ALZ049-050-065>069-310900-
SOUTHEAST ALABAMA

CITY           SKY/WX    TMP DP  RH WIND       PRES   REMARKS
DOTHAN         CLEAR     46  41  82 N5        29.99F
OZARK          CLEAR     47  41  82 CALM      29.97F
TROY           CLEAR     40  38  93 CALM      29.98F
EUFAULA        FAIR      41  39  93 CALM      29.95F
$$




U.S. Dept. of Commerce
NOAA National Weather Service
1325 East West Highway
Silver Spring, MD 20910
E-mail: w-nws.webmaster@noaa.gov
Page last modified: May 16, 2007
NATIONAL WEATHER SERVICE: for Safety, for Work, for Fun - FOR LIFE